Regional Weather Roundup
Issued by NWS

Home | Current Version | Previous Version | Text Only | Print | Product List | Glossary On
Versions: 1 2 3 4 5 6 7 8 9 10 11 12 13 14 15 16 17 18 19 20 21 22 23 24 25 26 27 28 29 30 31 32 33 34 35 36 37 38 39 40 41 42 43 44 45 46 47 48 49 50
177
ASUS46 KSEW 290010
RWRWA

WASHINGTON REGIONAL WEATHER ROUNDUP
NATIONAL WEATHER SERVICE SEATTLE WA
500 PM PDT THU JUL 28 2016

NOTE:"FAIR" INDICATES FEW OR NO CLOUDS BELOW 12,000 FEET WITH NO
SIGNIFICANT WEATHER AND/OR OBSTRUCTIONS TO VISIBILITY.

WAZ505-507>509-290100-
SEATTLE, TACOMA, EVERETT, AND VICINITY

CITY           SKY/WX    TMP DP  RH WIND       PRES   REMARKS
EVERETT        SUNNY     79  59  50 N12       30.07F
6HR MIN TEMP:  70; 6HR MAX TEMP:  81;

BOEING FIELD   SUNNY     85  56  37 NW9       30.03F
6HR MIN TEMP:  74; 6HR MAX TEMP:  85;

RENTON         SUNNY     86  58  38 NW9       30.02F
6HR MIN TEMP:  75; 6HR MAX TEMP:  87;

SEATAC AIRPORT SUNNY     87  60  40 N10       30.06F
6HR MIN TEMP:  77; 6HR MAX TEMP:  87;

JBLM-MCCHORD   NOT AVBL
PUYALLUP       FAIR      88  59  37 VRB3      30.05F
BREMERTON      SUNNY     88  55  33 NW14G20   30.08S
6HR MIN TEMP:  75; 6HR MAX TEMP:  88;

JBLM-FT LEWIS  NOT AVBL
TACOMA NARROWS SUNNY     84  55  36 N10       30.04F
6HR MIN TEMP:  72; 6HR MAX TEMP:  84;

$$

WAZ001-503-506-510-514-515-290100-
NORTH INTERIOR

CITY           SKY/WX    TMP DP  RH WIND       PRES   REMARKS
BELLINGHAM     SUNNY     77  60  55 VRB5      30.05F
6HR MIN TEMP:  73; 6HR MAX TEMP:  80;

FRIDAY HARBOR  SUNNY     82  58  43 N9        30.06F
6HR MIN TEMP:  67; 6HR MAX TEMP:  83;

EASTSOUND      SUNNY     72  61  68 N5        30.05F
PORT ANGELES   SUNNY     74  55  51 NW5       30.09S
6HR MIN TEMP:  72; 6HR MAX TEMP:  80;

EDIZ HOOK      FAIR      60  52  76 NW13G21   30.08S
6HR MIN TEMP:  59; 6HR MAX TEMP:  67;

PORT TOWNSEND  FAIR      82  59  44 N8G14     30.06S
NAS WHIDBEY    MOSUNNY   72  56  57 W6        30.10F
6HR MIN TEMP:  60; 6HR MAX TEMP:  72;

ARLINGTON      SUNNY     84  57  39 NW13      30.05S
6HR MIN TEMP:  73; 6HR MAX TEMP:  84;

BURLINGTON     SUNNY     79  59  50 W12       30.06S
$$

WAZ020-022-039-040-504-511-512-290100-
SOUTHWEST INTERIOR

CITY           SKY/WX    TMP DP  RH WIND       PRES   REMARKS
SHELTON        SUNNY     92  56  29 E7        30.00F HX  90
6HR MIN TEMP:  78; 6HR MAX TEMP:  93;

OLYMPIA        SUNNY     89  55  31 N5        30.03F
6HR MIN TEMP:  75; 6HR MAX TEMP:  90;

CHEHALIS       FAIR      91  57  31 NE13      30.02F HX  90
KELSO          SUNNY     93  55  27 N13       29.98F HX  91
6HR MIN TEMP:  72; 6HR MAX TEMP:  93;

VANCOUVER      SUNNY     92  56  29 NW12G23   29.95F HX  90
6HR MIN TEMP:  74; 6HR MAX TEMP:  93;

SCAPPOOSE, OR  SUNNY     93  56  28 N12G24    29.95F HX  91
6HR MIN TEMP:  78; 6HR MAX TEMP:  93;

PORTLAND, OR   MOSUNNY   93  57  29 NW13      29.95F HX  91
6HR MIN TEMP:  74; 6HR MAX TEMP:  93;

$$

WAZ021-516-517-290100-
WASHINGTON COAST

CITY           SKY/WX    TMP DP  RH WIND       PRES   REMARKS
FORKS          SUNNY     70  59  68 SW7       30.08F
6HR MIN TEMP:  65; 6HR MAX TEMP:  75;

HOQUIAM        SUNNY     68  62  81 SW16      30.08F HAZE
6HR MIN TEMP:  58; 6HR MAX TEMP:  69;

ASTORIA, OR    SUNNY     70  59  68 NW16      30.06F
6HR MIN TEMP:  64; 6HR MAX TEMP:  74;

$$

WAZ019-023-024-040-518-519-290100-
CASCADE MOUNTAINS AND COLUMBIA GORGE

CITY           SKY/WX    TMP DP  RH WIND       PRES   REMARKS
STAMPEDE PASS  SUNNY     77  50  38 VRB7      30.19F
6HR MIN TEMP:  69; 6HR MAX TEMP:  78;

TROUTDALE, OR  SUNNY     94  60  32 W9        29.94F HX  94
6HR MIN TEMP:  74; 6HR MAX TEMP:  94;

THE DALLES, OR SUNNY    102  48  16 N9        29.86F HX  98
6HR MIN TEMP:  84; 6HR MAX TEMP: 104;

$$

WAZ026-027-041>044-520-521-290100-
EAST SLOPES

CITY           SKY/WX    TMP DP  RH WIND       PRES   REMARKS
OMAK           SUNNY     97  44  16 SW5       29.95F HX  93
6HR MIN TEMP:  88; 6HR MAX TEMP:  98;

WENATCHEE      SUNNY     98  50  19 E6        29.93F HX  95
6HR MIN TEMP:  85; 6HR MAX TEMP:  98;

ELLENSBURG     SUNNY     98  51  20 W8        29.98F HX  95
6HR MIN TEMP:  87; 6HR MAX TEMP: 101;

YAKIMA         SUNNY    101  46  15 CALM      29.93F HX  97
6HR MIN TEMP:  90; 6HR MAX TEMP: 102;

$$

WAZ028-034-035-290100-
COLUMBIA BASIN

CITY           SKY/WX    TMP DP  RH WIND       PRES   REMARKS
EPHRATA        SUNNY     98  47  17 S10       29.94F HX  94
6HR MIN TEMP:  89; 6HR MAX TEMP:  99;

MOSES LAKE     SUNNY     98  44  15 S6        29.95F HX  94
6HR MIN TEMP:  90; 6HR MAX TEMP: 100;

PASCO          SUNNY    102  49  16 N8        29.89F HX  99
6HR MIN TEMP:  89; 6HR MAX TEMP: 102;

HERMISTON, OR  SUNNY    103  48  15 NE7       29.89F HX  99
6HR MIN TEMP:  87; 6HR MAX TEMP: 103;

$$

WAZ036>038-290100-
NORTHEAST WASHINGTON

CITY           SKY/WX    TMP DP  RH WIND       PRES   REMARKS
SPOKANE GEIGER MOSUNNY   95  43  16 VRB3      30.02F HX  91
6HR MIN TEMP:  84; 6HR MAX TEMP:  95;

SPOKANE FELTS  SUNNY     95  46  18 NW3       30.00F HX  91
6HR MIN TEMP:  82; 6HR MAX TEMP:  96;

FAIRCHILD AFB  SUNNY     92  46  20 W8        30.03
6HR MIN TEMP:  84; 6HR MAX TEMP:  94; 6HR PCP: TRACE;

COEURDALENE,ID SUNNY     91  50  24 NW7       29.99F
6HR MIN TEMP:  82; 6HR MAX TEMP:  93;

DEER PARK      SUNNY     92  45  19 W8        30.02F
6HR MIN TEMP:  84; 6HR MAX TEMP:  94;

$$

WAZ029>033-290100-
SOUTHEAST WASHINGTON

CITY           SKY/WX    TMP DP  RH WIND       PRES   REMARKS
PULLMAN        SUNNY     92  45  19 N5        30.04F
6HR MIN TEMP:  84; 6HR MAX TEMP:  93;

LEWISTON, ID   SUNNY     99  43  14 W3        29.94F HX  95
6HR MIN TEMP:  88; 6HR MAX TEMP: 101;

WALLA WALLA    SUNNY     99  49  18 VRB6      29.92F HX  96
6HR MIN TEMP:  86; 6HR MAX TEMP: 100;

PENDLETON, OR  MOSUNNY   98  44  15 NW8       29.94F HX  94
6HR MIN TEMP:  86; 6HR MAX TEMP:  99;

$$




USA.gov is the U.S. government's official web portal to all federal, state and local government web resources and services.